Regional Weather Roundup
Issued by NWS

Home | Current Version | Previous Version | Text Only | Print | Product List | Glossary On
Versions: 1 2 3 4 5 6 7 8 9 10 11 12 13 14 15 16 17 18 19 20 21 22 23 24 25 26 27 28 29 30 31 32 33 34 35 36 37 38 39 40 41 42 43 44 45 46 47 48 49 50
541
ASUS43 KMKX 242100
RWRWI

WISCONSIN REGIONAL WEATHER ROUNDUP
NATIONAL WEATHER SERVICE MILWAUKEE/SULLIVAN WI
400 PM CDT SAT SEP 24 2016

NOTE: "FAIR" INDICATES FEW OR NO CLOUDS BELOW 12,000 FEET WITH NO
SIGNIFICANT WEATHER AND/OR OBSTRUCTIONS TO VISIBILITY.

WIZ001-002-006>008-014>016-023>028-242200-
NORTHWEST WISCONSIN

CITY           SKY/WX    TMP DP  RH WIND       PRES   REMARKS
SUPERIOR ARPT  CLOUDY    60  58  92 NE7       30.08S
ASHLAND        CLOUDY    68  60  75 VRB6      30.10F
HAYWARD        CLOUDY    68  59  73 SE10      30.09F
SIREN          CLOUDY    66  60  80 SE9G16    30.06F
CUMBERLAND     CLOUDY    64  59  82 SE12G18   30.08F
RICE LAKE      CLOUDY    67  59  75 SE16G22   30.09F
CHETEK         NOT AVBL
LADYSMITH      CLOUDY    69  59  69 SE9G16    30.12F
EAU CLAIRE     NOT AVBL
MENOMONIE      CLOUDY    68  61  77 E13       30.08F
NEW RICHMOND   CLOUDY    67  60  78 SE13G20   30.05F
OSCEOLA        CLOUDY    68  66  93 SE16      30.06F
$$

WIZ003>005-009-010-017-018-242200-
NORTH CENTRAL WISCONSIN

CITY           SKY/WX    TMP DP  RH WIND       PRES   REMARKS
MANITOWISH WTR NOT AVBL
ARBOR VITAE    MOSUNNY   69  56  62 SE12G17   30.15F
WOODRUFF       MOSUNNY   69  56  62 SE12G17   30.15F
RHINELANDER    SUNNY     67  52  58 SE10      30.17F
EAGLE RIVER    SUNNY     68  50  52 SE7       30.17F
LAND O LAKES   MOSUNNY   69  52  53 SE9G17    30.19F
PHILLIPS       PTSUNNY   68  59  73 SE8       30.14F
TOMAHAWK       SUNNY     67  54  62 SE5       30.16F
MEDFORD        CLOUDY    65  55  70 SE9       30.14F
MERRILL        MOSUNNY   69  55  60 SE15      30.17F
$$

WIZ029-030-035-036-043>047-242200-
CENTRAL WISCONSIN

CITY           SKY/WX    TMP DP  RH WIND       PRES   REMARKS
WAUSAU         PTSUNNY   69  53  56 SE15      30.14F
MOSINEE        MOSUNNY   68  55  64 SE13      30.17F
MARSHFIELD     PTSUNNY   68  56  65 SE10      30.14F
STEVENS POINT  CLOUDY    64  55  71 E10       30.17F
WAUPACA        PTSUNNY   71  56  58 E10G16    30.18F
WAUTOMA        PTSUNNY   69  58  67 E10       30.16F
WISC RAPIDS    LGT RAIN  68  58  70 SE12      30.16F
CAMP DOUGLAS   MOSUNNY   66  61  82 SE14      30.13F
$$

WIZ011>013-019>022-031-037>040-048>050-242200-
NORTHEAST WISCONSIN

CITY           SKY/WX    TMP DP  RH WIND       PRES   REMARKS
ANTIGO         CLOUDY    64  54  69 SE12      30.19F
SHAWANO        MOSUNNY   73  52  48 SE8       30.19F
OCONTO         NOT AVBL
STURGEON BAY   SUNNY     65  52  62 E8        30.23F
GREEN BAY      SUNNY     69  52  54 E10       30.20F
MANITOWOC      NOT AVBL
APPLETON       PTSUNNY   68  50  52 SE8       30.18F
CLINTONVILLE   NOT AVBL
OSHKOSH        PTSUNNY   67  56  67 SE9       30.18F
$$

WIZ032>034-041-042-053>061-242200-
SOUTHWEST WISCONSIN

CITY           SKY/WX    TMP DP  RH WIND       PRES   REMARKS
LA CROSSE      CLOUDY    71  63  75 SE9       30.07F
SPARTA         CLOUDY    66  61  82 E9        30.12F
VIROQUA        CLOUDY    67  62  85 SE10      30.12F
BOSCOBEL       CLOUDY    72  64  76 VRB5      30.10F
PRAIRIE DU CHI CLOUDY    71  63  77 E8        30.09F
PLATTEVILLE    CLOUDY    72  67  86 E8        30.12F
$$

WIZ056-057-062-063-064-067-068-242200-
SOUTH CENTRAL WISCONSIN

CITY           SKY/WX    TMP DP  RH WIND       PRES   REMARKS
REEDSBURG      NOT AVBL
BARABOO/DELLS  PTSUNNY   67  59  73 SE10      30.14F
LONE ROCK      NOT AVBL
MINERAL POINT  CLOUDY    72  66  83 E6        30.13F
MADISON        MOSUNNY   70  61  73 SE12      30.13F
MIDDLETON      CLOUDY    71  62  74 E9        30.14F
WATERTOWN      CLOUDY    68  62  82 E9        30.16S
MONROE         CLOUDY    70  63  78 E7        30.14F
JANESVILLE     MOSUNNY   73  63  68 E9        30.14F
$$

WIZ051-052-058>065-066-070>072-242200-
SOUTHEAST WISCONSIN

CITY           SKY/WX    TMP DP  RH WIND       PRES   REMARKS
MILWAUKEE      PTSUNNY   68  60  75 E10       30.18F
WAUKESHA       CLOUDY    64  59  82 E10       30.19F
MILWAUKEE/TIMM CLOUDY    66  55  68 SE8       30.20F
RACINE         CLOUDY    68  60  75 E13       30.19F
BURLINGTON     CLOUDY    66  59  78 E10       30.17S
KENOSHA        CLOUDY    68  61  78 E10       30.18S
FOND DU LAC    CLOUDY    67  58  72 SE9       30.18F
SHEBOYGAN      PTSUNNY   65  55  70 SE7       30.21R
WEST BEND      CLOUDY    64  57  77 E7        30.19F
JUNEAU         CLOUDY    65  59  80 E12       30.18F
$$

LSZ147-162-242200-
LAKE SUPERIOR

STATION/POSITION TIME  TEMP    WIND        PRES    WAVE
                       AIR SEA DIR/SP/G            HT/PER
                 (UTC) (F)     (DEG/KT/KT) (MB)    (FT/S)
W MID LAKE BUOY  1950   63 62   90/ 12/ 14 1021.0F   2/ 4
DEVILS ISLAND    2000   61      70/ 13/ 15 1020.5F
SAXON HARBOR     2000   70     180/  4/  8 1020.0
$$

LMZ867-665-643>646-242200-
LAKE MICHIGAN

STATION/POSITION TIME  TEMP    WIND        PRES    WAVE
                       AIR SEA DIR/SP/G            HT/PER
                 (UTC) (F)     (DEG/KT/KT) (MB)    (FT/S)
CHAMBERS ISLAND  2000   64      90/  4/  7 1023.4F
S GREEN BAY BUOY 2000   65 67  140/  8/ 10 1022.8F
N MID LAKE BUOY  1950   62 68  120/ 12/ 14 1024.0F   2/ 4
NORTHPORT PIER   2000   64     120/  8/ 11 1023.7F
SISTER BAY       1908   71     130/ 11/ 13   N/A
KEWAUNEE LAKESHO 2000   64     140/  4/  7 1023.2F
SHEBOYGAN LAKESH 2000   63     120/  8/  9 1022.6F
PORT WASHINGTON  2040   65      70/  4/  5 1023.4F
ATWATER BUOY     2000   64 62  120/  8/ 10 1022.4F
MILWAUKEE LAKESH 2010   64      90/  7/  7   N/A
S MID LAKE BUOY  1950   67 72  100/ 12/ 14 1021.5F   2/ 4
KENOSHA   LAKESH 2000   68     100/  8/  9 1021.7F
$$

TC  - TEMPERATURE IN CELSIUS
VSB - VISIBILITY IN STATUTE MILES
WCI - WIND CHILL INDEX
HX  - HEAT INDEX





USA.gov is the U.S. government's official web portal to all federal, state and local government web resources and services.